Weather History for KASX - March, 2014

Change the Weather History Date:

Saturday, March 8, 2014

  Actual Average Record
Temperature  
Mean Temperature 22 °F -  
Max Temperature 28 °F 36 °F 72 °F (1987)
Min Temperature 15 °F 12 °F -15 °F (1960)
Degree Days  
Heating Degree Days 44    
Moisture  
Dew Point 9 °F    
Average Humidity 63    
Maximum Humidity 77    
Minimum Humidity 45    
Precipitation  
Precipitation 0.00 in - - ()
Sea Level Pressure  
Sea Level Pressure 30.27 in    
Wind  
Wind Speed 8 mph (WNW)    
Max Wind Speed 12 mph    
Max Gust Speed -    
Visibility 10 miles    
Events      
Averages and records for this station are not official NWS values.
T = Trace of Precipitation, MM = Missing Value Source: NWS Daily Summary

Daily Weather History Graph

Daily Weather History Graph

Search for Another Location

Airport or City:

Trip Planner

Search our weather history database for the weather conditions in past years. The results will help you decide how hot, cold, wet, or windy it might be!

Date:

Astronomy

Mar. 08, 2014 Rise Set
Actual Time 6:29 AM CST 5:59 PM CST
Civil Twilight 5:59 AM CST 6:29 PM CST
Nautical Twilight 5:24 AM CST 7:04 PM CST
Astronomical Twilight 4:49 AM CST 7:40 PM CST
Moon 10:49 AM CST (3/8) 1:19 AM CST (3/8)
Length of Visible Light 12h 29m
Length of Day
11h 29m
First Quarter, 52% of the Moon is Illuminated
Mar 8
First Quarter
Mar 16
Full
Mar 23
Last Quarter
Mar 30
New
Apr 7
First Quarter

Hourly Weather History & Observations

Time (CST) Temp. Windchill Dew Point Humidity Pressure Visibility Wind Dir Wind Speed Gust Speed Precip Events Conditions
12:53 AM 19.9 °F 9.3 °F 12.9 °F 74% 30.27 in 10.0 mi NNE 9.2 mph - N/A   Overcast
1:39 AM 19.0 °F 6.8 °F 12.0 °F 74% 30.24 in 10.0 mi NNE 11.5 mph - N/A   Overcast
1:53 AM 19.0 °F 8.2 °F 10.9 °F 71% 30.28 in 10.0 mi NNE 9.2 mph - N/A   Overcast
2:31 AM 18.0 °F 6.1 °F 10.9 °F 74% 30.25 in 8.0 mi NNE 10.4 mph - N/A   Overcast
2:48 AM 17.6 °F 5.7 °F 10.4 °F 73% 30.25 in 10.0 mi NNE 10.4 mph - N/A   Overcast
2:53 AM 18.0 °F 6.1 °F 10.9 °F 74% 30.30 in 10.0 mi NNE 10.4 mph - N/A   Overcast
3:00 AM 17.1 °F 4.3 °F 10.9 °F 77% 30.25 in 10.0 mi NNE 11.5 mph - N/A   Overcast
3:53 AM 17.1 °F 5.8 °F 10.9 °F 77% 30.30 in 10.0 mi North 9.2 mph - N/A   Overcast
4:53 AM 16.0 °F 7.4 °F 10.0 °F 77% 30.31 in 10.0 mi North 5.8 mph - N/A   Overcast
5:53 AM 15.1 °F 7.7 °F 9.0 °F 77% 30.32 in 10.0 mi NW 4.6 mph - N/A   Overcast
6:53 AM 15.1 °F 7.7 °F 9.0 °F 77% 30.34 in 10.0 mi NW 4.6 mph - N/A   Overcast
7:53 AM 15.1 °F 9.4 °F 9.0 °F 77% 30.35 in 10.0 mi NW 3.5 mph - N/A   Overcast
8:53 AM 18.0 °F - 10.0 °F 71% 30.36 in 10.0 mi Calm Calm - N/A   Overcast
9:53 AM 21.0 °F - 8.1 °F 57% 30.35 in 10.0 mi Calm Calm - N/A   Partly Cloudy
10:10 AM 19.9 °F - 8.1 °F 60% 30.30 in 10.0 mi Calm Calm - N/A   Mostly Cloudy
10:43 AM 19.9 °F 11.1 °F 8.1 °F 60% 30.30 in 10.0 mi SW 6.9 mph - N/A   Overcast
10:53 AM 21.0 °F 11.4 °F 8.1 °F 57% 30.34 in 10.0 mi SW 8.1 mph - N/A   Overcast
11:53 AM 21.9 °F 13.4 °F 8.1 °F 55% 30.33 in 10.0 mi Variable 6.9 mph - N/A   Partly Cloudy
12:53 PM 25.0 °F 16.3 °F 9.0 °F 51% 30.30 in 10.0 mi WSW 8.1 mph - N/A   Scattered Clouds
1:53 PM 26.1 °F 21.9 °F 9.0 °F 49% 30.26 in 10.0 mi West 3.5 mph - N/A   Clear
2:53 PM 27.0 °F 18.7 °F 8.1 °F 45% 30.24 in 10.0 mi West 8.1 mph - N/A   Clear
3:53 PM 28.0 °F 22.8 °F 9.0 °F 45% 30.24 in 10.0 mi WNW 4.6 mph - N/A   Clear
4:53 PM 27.0 °F 18.7 °F 8.1 °F 45% 30.23 in 10.0 mi WNW 8.1 mph - N/A   Clear
5:53 PM 24.1 °F 18.2 °F 6.1 °F 46% 30.23 in 10.0 mi WNW 4.6 mph - N/A   Clear
6:53 PM 19.0 °F 13.9 °F 3.9 °F 52% 30.23 in 10.0 mi West 3.5 mph - N/A   Clear
7:53 PM 16.0 °F 8.8 °F 3.9 °F 59% 30.22 in 10.0 mi SW 4.6 mph - N/A   Clear
8:53 PM 16.0 °F 7.4 °F 5.0 °F 62% 30.22 in 10.0 mi SSW 5.8 mph - N/A   Clear
9:53 PM 17.1 °F 8.7 °F 6.1 °F 62% 30.20 in 10.0 mi SSW 5.8 mph - N/A   Clear
10:53 PM 19.9 °F 10.1 °F 8.1 °F 60% 30.18 in 10.0 mi SW 8.1 mph - N/A   Clear
11:53 PM 19.9 °F 8.6 °F 8.1 °F 60% 30.15 in 10.0 mi SW 10.4 mph - N/A   Clear